Weather History for LTBA - May, 2013

Change the Weather History Date:

Wednesday, May 1, 2013

  Actual Average Record
Temperature  
Mean Temperature 65 °F -  
Max Temperature 73 °F 69 °F 78 °F (1999)
Min Temperature 57 °F 54 °F 48 °F (1997)
Growing Degree Days 15 (Base 50)    
Moisture  
Dew Point 55 °F    
Average Humidity 72    
Maximum Humidity 100    
Minimum Humidity 45    
Precipitation  
Precipitation 0.00 in - - ()
Sea Level Pressure  
Sea Level Pressure 30.08 in    
Wind  
Wind Speed 10 mph ()    
Max Wind Speed 20 mph    
Max Gust Speed -    
Visibility 7.5 miles    
Events      
Averages and records for this station are not official NWS values.
T = Trace of Precipitation, MM = Missing Value Source: Averaged Metar Reports

Daily Weather History Graph

Daily Weather History Graph

Search for Another Location

Airport or City:

Trip Planner

Search our weather history database for the weather conditions in past years. The results will help you decide how hot, cold, wet, or windy it might be!

Date:

Astronomy

May. 01, 2013 Rise Set
Actual Time 6:02 AM EEST 8:01 PM EEST
Civil Twilight 5:33 AM EEST 8:31 PM EEST
Nautical Twilight 4:56 AM EEST 9:07 PM EEST
Astronomical Twilight 4:17 AM EEST 9:47 PM EEST
Moon 12:56 AM EEST (5/1) 11:18 AM EEST (5/1)
Length of Visible Light 14h 58m
Length of Day
13h 58m
Waning Gibbous, 62% of the Moon is Illuminated
May 1
Waning Gibbous
May 2
Last Quarter
May 10
New
May 18
First Quarter
May 25
Full

Hourly Weather History & Observations

Time (EEST) Temp. Dew Point Humidity Pressure Visibility Wind Dir Wind Speed Gust Speed Precip Events Conditions
12:20 AM 59.0 °F 53.6 °F 82% 30.12 in - North 13.8 mph - N/A   Clear
12:50 AM 59.0 °F 53.6 °F 82% 30.12 in - North 11.5 mph - N/A   Clear
1:20 AM 60.8 °F 53.6 °F 77% 30.12 in - North 10.4 mph - N/A   Clear
1:50 AM 59.0 °F 53.6 °F 82% 30.12 in - North 13.8 mph - N/A   Clear
2:20 AM 57.2 °F 55.4 °F 94% 30.12 in - North 12.7 mph - N/A   Clear
2:50 AM 57.2 °F 55.4 °F 94% 30.12 in - North 10.4 mph - N/A   Clear
3:00 AM 58 °F 56 °F 90% 30.12 in 6 mi North 10.4 mph - -  
3:20 AM 59.0 °F 57.2 °F 94% 30.09 in - North 8.1 mph - N/A   Clear
3:50 AM 57.2 °F 55.4 °F 94% 30.09 in - North 9.2 mph - N/A   Clear
4:20 AM 57.2 °F 57.2 °F 100% 30.09 in - North 8.1 mph - N/A   Clear
4:50 AM 57.2 °F 57.2 °F 100% 30.09 in - North 6.9 mph - N/A   Clear
5:20 AM 57.2 °F 57.2 °F 100% 30.09 in - North 6.9 mph - N/A   Clear
5:50 AM 57.2 °F 57.2 °F 100% 30.09 in - North 4.6 mph - N/A   Clear
6:20 AM 59.0 °F 55.4 °F 88% 30.09 in - NNE 5.8 mph - N/A   Clear
6:50 AM 60.8 °F 53.6 °F 77% 30.12 in - NNE 8.1 mph - N/A   Clear
7:20 AM 60.8 °F 53.6 °F 77% 30.12 in - North 9.2 mph - N/A   Clear
7:50 AM 60.8 °F 55.4 °F 82% 30.12 in - North 10.4 mph - N/A   Clear
8:20 AM 62.6 °F 53.6 °F 72% 30.12 in - North 10.4 mph - N/A   Clear
8:50 AM 64.4 °F 53.6 °F 68% 30.12 in - North 5.8 mph - N/A   Clear
9:00 AM 64 °F 53 °F 58% 30.12 in 6 mi North 5.8 mph - -  
9:20 AM 66.2 °F 51.8 °F 60% 30.12 in - NNE 3.5 mph - N/A   Clear
9:50 AM 68.0 °F 51.8 °F 56% 30.09 in - North 6.9 mph - N/A   Clear
10:20 AM 64.4 °F 53.6 °F 68% 30.12 in - SSW 2.3 mph - N/A   Clear
10:50 AM 69.8 °F 53.6 °F 56% 30.09 in - North 9.2 mph - N/A   Clear
11:20 AM 69.8 °F 53.6 °F 56% 30.09 in - North 10.4 mph - N/A   Clear
11:50 AM 68.0 °F 55.4 °F 64% 30.09 in - Variable 4.6 mph - N/A   Clear
12:20 PM 69.8 °F 53.6 °F 56% 30.09 in - Variable 8.1 mph - N/A   Clear
12:50 PM 71.6 °F 55.4 °F 57% 30.09 in - North 10.4 mph - N/A   Clear
1:20 PM 71.6 °F 55.4 °F 57% 30.09 in - North 13.8 mph - N/A   Clear
1:50 PM 71.6 °F 55.4 °F 57% 30.06 in - NNW 13.8 mph - N/A   Clear
2:20 PM 71.6 °F 53.6 °F 53% 30.06 in - NNW 13.8 mph - N/A   Clear
2:50 PM 73.4 °F 55.4 °F 53% 30.06 in - North 11.5 mph - N/A   Clear
3:00 PM 73 °F 56 °F 45% 30.07 in 12 mi North 11.5 mph - -  
3:20 PM 71.6 °F 55.4 °F 57% 30.06 in - North 15.0 mph - N/A   Clear
3:50 PM 71.6 °F 55.4 °F 57% 30.06 in - North 16.1 mph - N/A   Clear
4:20 PM 71.6 °F 55.4 °F 57% 30.04 in - North 15.0 mph - N/A   Clear
4:50 PM 71.6 °F 55.4 °F 57% 30.04 in - North 16.1 mph - N/A   Clear
5:20 PM 69.8 °F 55.4 °F 60% 30.04 in - North 17.3 mph - N/A   Clear
5:50 PM 68.0 °F 55.4 °F 64% 30.04 in - North 15.0 mph - N/A   Clear
6:20 PM 66.2 °F 53.6 °F 64% 30.04 in - North 19.6 mph - N/A   Clear
6:50 PM 66.2 °F 53.6 °F 64% 30.04 in - North 17.3 mph - N/A   Clear
7:20 PM 62.6 °F 55.4 °F 77% 30.04 in - North 16.1 mph - N/A   Clear
7:50 PM 62.6 °F 55.4 °F 77% 30.04 in - North 13.8 mph - N/A   Clear
8:20 PM 62.6 °F 53.6 °F 72% 30.04 in - NNE 11.5 mph - N/A   Clear
8:50 PM 62.6 °F 55.4 °F 77% 30.04 in - North 10.4 mph - N/A   Clear
9:00 PM 62 °F 54 °F 68% 30.04 in 6 mi North 10.4 mph - -  
9:20 PM 60.8 °F 53.6 °F 77% 30.04 in - North 11.5 mph - N/A   Clear
9:50 PM 60.8 °F 53.6 °F 77% 30.06 in - NNE 10.4 mph - N/A   Clear
10:20 PM 59.0 °F 53.6 °F 82% 30.06 in - North 9.2 mph - N/A   Clear
10:50 PM 59.0 °F 51.8 °F 77% 30.06 in - North 11.5 mph - N/A   Clear
11:20 PM 59.0 °F 51.8 °F 77% 30.06 in - NNE 12.7 mph - N/A   Clear
11:50 PM 59.0 °F 51.8 °F 77% 30.06 in - North 10.4 mph - N/A   Clear